STARLINK-5148 (53978 NORAD) Tracking and Keplerian Element Data

This shows tracking and keplerian element data for the satellite.

Feedback or suggestion? Click here.




ElementValue
Catalog53978
NameSTARLINK-5148
Epoch Orbit130
Epoch Day324.91667824
Epoch Year2022
RAAN227.8527
Inclination53.2174
Eccentricity0.0001671
Argument of Perigee49.764
Mean Anonmoly112.4063
Mean Motion15.25892968
Decay Rate-0.01133944
L11 53978U 22125Q 22324.91667824 -.01133944 00000+0 -47931-1 0 9991
L22 53978 53.2174 227.8527 0001671 49.7640 112.4063 15.25892968 1300



Live tracking and technical data element details for STARLINK-5148 (NORAD 53978). STARLINK-5148 can be tracked NOW for your location showing map with azimuth and elevation plus other details from your city location.







IsCatalogInMostPopularTable: catalog: 53978, numindb: 3
Update: records affected: 1



GetName: 53978 STARLINK-5148

Hit Count: updated at: Mon, 28 Nov 2022 21:14:46 GMT